www.pogodaiklimat.ru

Погода и климат >> Архив погоды >> Россия >> город Москва >> Москва


АРХИВ ПОГОДЫ в Москве

Время (UTC), дата Ветер
(напр.,м/с)
 
Видим.   Явления Облачность Т
(С)
Тd
(С)
f
(%)
Тe
(С)
Тes
(С)
Комфортность P
(гПа)
Po
(гПа)
Тmin
(С)
Tmax
(С)
R
(мм)
R24
(мм)
S
(см)
18 10.11 Ю 1 н/о слабый дождь 10/10 300 м
[Frnb Ns]
+2.0 +0.8 92 0 0 по сезону 1016.8 997.2 +3.0 2
21 10.11 Ю 1 н/о слабый дождь 10/10 200 м
[Frnb Ns]
+2.3 +1.4 94 +1 +1 по сезону 1015.9 996.3
00 11.11 Ю 1 н/о в посл. час дождь 10/10 600 м
[Sc]
+3.1 +2.0 92 +1 +1 по сезону 1014.8 995.2
03 11.11 Ю 2 н/о дымка {дождь} 10/10 200 м
[Frnb]
+3.3 +2.5 94 0 0 по сезону 1013.8 994.3 +1.9 2
06 11.11 Ю 1 4000 м дымка {дождь} 10/10 200 м
[Frnb]
+3.6 +2.9 95 +2 +2 тепло 1013.2 993.7 +1.9 1
09 11.11 Ю 2 4000 м слабый дождь 10/10 200 м
[Frnb]
+4.3 +3.3 93 +1 +1 по сезону 1012.2 992.8
12 11.11 Ю 2 4000 м в посл. час дождь 10/10 200 м
[Frnb]
+5.1 +3.7 91 +2 +2 по сезону 1010.8 991.5
15 11.11 Ю 2 н/о в посл. час дождь 10/10 200 м
[Frnb]
+5.2 +3.9 91 +3 +3 тепло 1010.1 990.8 0.5
18 11.11 Ю 2 н/о слабый дождь 10/10 200 м
[Frnb Ns]
+5.2 +3.7 90 +3 +3 тепло 1009.0 989.7 +5.3 1
21 11.11 Ю 2 н/о слабый дождь 10/10 300 м
[Frnb]
+4.9 +3.6 91 +2 +2 тепло 1007.7 988.4
00 12.11 Ю 2 н/о дымка {дождь} 10/10 200 м
[Frnb]
+4.6 +3.2 91 +2 +2 тепло 1006.2 986.9
03 12.11 Ю 2 н/о слабый дождь 10/10 300 м
[Frnb Ns]
+4.2 +2.8 91 +1 +1 по сезону 1004.8 985.5 +4.2 3
06 12.11 Ю 1 2000 м слабый дождь 10/10 200 м
[Frnb Ns]
+4.0 +3.3 95 +2 +2 тепло 1004.2 984.9 +3.9 2
09 12.11 З 1 4000 м дымка {дождь} 10/10 600 м
[Sc]
+4.0 +2.6 91 +2 +2 по сезону 1004.4 985.1
12 12.11 ЮЗ 1 10 км дымка {дождь} 6/6 600 м
[Sc]
+4.2 +0.6 77 +3 +3 тепло 1004.9 985.6
15 12.11 штиль 0 н/о ясно +2.0 -0.5 83 +1 +1 по сезону 1006.1 986.6 1
18 12.11 ЮЗ 1 н/о 8/8 600 м
[Sc]
+3.6 0.0 77 +2 +2 тепло 1007.0 987.6 +4.7 0.6
21 12.11 штиль 0 н/о 10/10 600 м
[Sc]
+3.0 +0.5 84 +2 +2 тепло 1007.5 988.1
00 13.11 штиль 0 н/о дымка 5/5 600 м
[Sc]
+1.2 0.0 92 0 0 по сезону 1009.0 989.4
03 13.11 штиль 0 н/о дымка ясно -1.3 -1.7 97 -3 -3 по сезону 1010.3 990.5 -1.6
06 13.11 штиль 0 4000 м дымка 8/8 600 м
[Sc]
0.0 -0.3 98 -1 -1 по сезону 1012.6 992.8 -2.2
09 13.11 СЗ 1 10 км 8/5 600 м
[Sc Ac trans]
+1.2 -0.7 87 -1 -0 по сезону 1014.2 994.5
12 13.11 З 1 10 км 8/8 600 м
[Sc]
+1.2 -1.1 85 -1 -1 по сезону 1016.1 996.4
15 13.11 штиль 0 н/о дымка 8/3 600 м
[Sc Ac trans]
-0.1 -1.5 90 -1 -1 по сезону 1016.5 996.7
18 13.11 штиль 0 н/о дымка 10/10 600 м
[Sc]
+0.7 -1.3 86 -0 -0 по сезону 1016.6 996.8 +1.9
21 13.11 Ю 2 н/о в посл. час дождь 10/10 600 м
[Sc]
+1.2 -0.2 90 -2 -2 по сезону 1015.2 995.5
00 14.11 ЮВ 3 н/о слабый ливневой снег 10/10 600 м
[Cb calv]
+1.0 +0.3 95 -4 -4 по сезону 1011.7 992.1
03 14.11 Ю 2 н/о слабый ливневой снег 10/10 300 м
[Cb calv]
+0.7 +0.1 96 -3 -3 по сезону 1008.5 988.9 -0.1 5
06 14.11 Ю 1 1000 м ливневой снег 10/10 300 м
[Cb calv]
+1.0 +0.5 96 -1 -1 по сезону 1005.6 986.1 -0.1 11 3
09 14.11 З 1 4000 м слабый дождь {ливн. осадки} 10/10 300 м
[Frnb Ns]
+2.6 +2.1 97 +1 +1 по сезону 1004.5 985.1
12 14.11 З 1 4000 м слабый дождь со снегом {ливн. осадки} 10/10 200 м
[Frnb Ns]
+0.8 +0.3 96 -1 -1 по сезону 1005.9 986.3
15 14.11 СЗ 2 н/о в посл. час снег {дождь} 10/10 300 м
[Frnb]
+1.1 0.0 92 -2 -2 по сезону 1010.3 990.7 13
18 14.11 З 1 н/о дымка {снег, дождь} 10/10 300 м
[Frnb]
+1.5 -0.2 88 -0 -0 по сезону 1014.1 994.5 +2.6 7
21 14.11 З 1 н/о 10/10 600 м
[Sc]
+1.2 -1.6 82 -1 -1 по сезону 1016.6 996.9
00 15.11 З 1 н/о дымка 10/10 600 м
[Sc]
+1.0 -0.7 88 -1 -1 по сезону 1018.4 998.6
03 15.11 З 1 н/о дымка 10/10 600 м
[Sc]
+0.9 -0.8 88 -1 -1 по сезону 1018.8 999.0 +0.8
06 15.11 З 1 4000 м дымка 10/10 300 м
[Frnb]
+1.0 -0.7 88 -1 -1 по сезону 1019.7 999.9 +0.5 1
09 15.11 З 1 10 км 10/10 600 м
[Sc]
+2.1 -1.1 79 +1 +1 по сезону 1020.1 1000.3
12 15.11 З 1 4000 м слабый ливневой снег 10/10 300 м
[Cb cap]
+1.8 -0.8 83 0 0 по сезону 1019.9 1000.1
15 15.11 ЮЗ 1 н/о слабый снег {ливн. осадки} 10/10 300 м
[Frnb]
+1.6 -0.5 86 -0 -0 по сезону 1019.1 999.3 0.4
18 15.11 З 1 н/о слабый снег {ливн. осадки} 10/10 300 м
[Frnb]
+1.2 +0.1 92 -1 -1 по сезону 1018.4 998.6 +2.2 0.9
21 15.11 ЮЗ 1 н/о слабый снег 10/10 300 м
[Frnb]
+1.7 +0.3 90 -0 -0 по сезону 1017.5 997.8
00 16.11 З 2 н/о дымка {снег} 5/5 600 м
[Sc]
+1.8 +0.6 92 -2 -2 по сезону 1016.7 997.0
03 16.11 ЮЗ 1 н/о дымка 10/10 300 м
[Frnb]
+2.5 +0.7 88 +1 +1 тепло 1015.4 995.8 +1.1 1
06 16.11 ЮЗ 1 4000 м слабый дождь 10/10 300 м
[Frnb]
+2.6 +1.4 92 +1 +1 тепло 1013.7 994.2 +1.2 1
09 16.11 З 2 4000 м в посл. час дождь 10/10 300 м
[Frnb Ns]
+3.0 +1.7 91 -0 -0 по сезону 1012.9 993.4
12 16.11 З 1 4000 м слабый ливневой дождь 10/10 300 м
[Cb calv]
+3.0 +1.6 91 +1 +1 по сезону 1013.8 994.3
15 16.11 З 1 н/о слабый дождь {ливн. осадки} 10/10 300 м
[Frnb Ns]
+2.8 +1.3 90 +1 +1 по сезону 1015.4 995.8 3
18 16.11 З 1 н/о слабый дождь {ливн. осадки} 10/10 300 м
[Frnb Ns]
+2.0 +0.9 92 0 0 по сезону 1017.5 997.8 +3.6 4
21 16.11 З 2 н/о дымка {дождь} 10/10 300 м
[Frnb]
+2.2 +1.0 92 -1 -1 по сезону 1019.0 999.2
00 17.11 З 1 н/о слабый ливневой снег {дождь} 10/10 600 м
[Cb calv]
+1.3 -0.5 88 -1 -1 по сезону 1020.9 1001.1
03 17.11 З 1 н/о дымка {ливн. осадки} 10/10 600 м
[Sc]
+1.7 +0.4 91 -0 -0 по сезону 1021.7 1001.9 +1.1 1
06 17.11 З 1 4000 м дымка {ливн. осадки} 10/10 600 м
[Sc]
+1.5 -0.4 87 -0 -0 по сезону 1022.4 1002.6 +1.1 0.3
09 17.11 ЮЗ 1 10 км 9/9 600 м
[Sc]
+2.0 -1.5 78 0 +1 по сезону 1022.4 1002.6
12 17.11 ЮЗ 2 10 км 10/10 600 м
[Sc]
+1.6 -2.1 76 -2 -2 по сезону 1021.9 1002.1
15 17.11 Ю 1 н/о 8/8 600 м
[Sc]
+1.0 -2.0 80 -1 -1 по сезону 1020.5 1000.7

 

Местоположение метеостанции Москва (город Москва, Россия): широта 55.83 долгота 37.62 высота над уровнем моря 156 м.

В архиве по умолчанию представлена погода в Москве за последнюю неделю. Архивные данные за месяц целиком и за предыдущие месяцы, начиная с января 2011 года, Вы можете получить, выбрав интересующий диапазон дат из раскрывающегося списка и нажав кнопку "Ввод!".

Внимание! Время в таблицах - всемирное. Для получения местного времени необходимо прибавить поправку, которая в Москве равна 3 ч.

Смотрите также архив погоды в соседних городах и на ближайших метеорологических станциях:

Погода в Москве (Балчуг) (город Москва, Россия) (9 км)
Погода в Москве (Тушино) (город Москва, Россия) (12 км)
Погода в Москве (Строгино) (город Москва, Россия) (14 км)
Погода в Шереметьево (Московская область, Россия) (20 км)
Погода в Немчиновке (город Москва, Россия) (21 км)
Погода в Подмосковной (Московская область, Россия) (29 км)
Погода в Внуково (Московская область, Россия) (33 км)
Погода в Михайловском (Московская область, Россия) (49 км)
Погода в Ново-Йерусалиме (Московская область, Россия) (51 км)
Погода в Домодедово (Московская область, Россия) (51 км)

Пояснения к столбцам:

Ветер - указаны скорость ветра в м/с - средняя за 10 мин, порывы в срок и между сроками (в фигурных скобках) и направление, откуда дует ветер: С - северный, СВ - северо-восточный, В - восточный, ЮВ - юго-восточный, Ю - южный, ЮЗ - юго-западный, З - западный, СЗ - северо-западный.
Видимость - горизонтальная дальность видимости в метрах или километрах. При видимости от 1 до 10 км при отсутствии осадков обычно наблюдается дымка, при ухудшении видимости до 1 км и менее - туман. В сухую погоду видимость может ухудшаться дымом, пылью или мглою.
Явления - указаны атмосферные явления, наблюдавшиеся в срок или в последний час перед сроком; фигурными скобками обозначены явления, наблюдавшиеся между сроками (за 1-3 часа до срока); квадратными скобками обозначены град или гололедные отложения с указанием их диаметра в мм.
Облачность - указаны через наклонную черту общая и нижняя облачность в баллах и высота нижней границы облаков в метрах; квадратными скобками обозначены формы облаков: Ci - перистые, Cs - перисто-слоистые, Cc - перисто-кучевые, Ac - высококучевые, As - высокослоистые, Sc - слоисто-кучевые, Ns - слоисто-дождевые, Cu - кучевые, Cb - кучево-дождевые. Подробнее классификацию облаков см. в Атласе облаков (PDF).
T - Температура воздуха - температура, измеренная на высоте 2 м над землей.
Td - Температура точки росы - температура, при понижении до которой содержащийся в воздухе водяной пар достигнет насыщения.
f - Относительная влажность воздуха - влажноcть воздуха, измеренная на высоте 2 м над землей.
Te - Эффективная температура - температура, которую ощущает одетый по сезону человек в тени. Характеристика душности погоды. При расчете учитывается влияние влажности воздуха и скорости ветра на теплоощущения человека.
Tes - Эффективная температура на солнце - температура, которую ощущает человек, с поправкой на солнечный нагрев. Характеристика знойности погоды. Зависит от высоты солнца над горизонтом, облачности и скорости ветра. Ночью, в пасмурную погоду, а также при ветре 12 м/с и более поправка равна нулю.
P - Атмосферное давление - приведенное к уровню моря атмосферное давление.
Po - Атмосферное давление - измеренное на уровне метеостанции атмосферное давление.
Tmin - Минимальная температура - минимум температуры воздуха на высоте 2 м над землей.
Tmax - Максимальная температура - максимум температуры воздуха на высоте 2 м над землей.
R - Количество осадков - Количество выпавших осадков за период времени, мм. При наведении курсора мыши на число - период времени, за который выпало указанное количество осадков.
R24 - Количество осадков - Количество выпавших осадков за 24 часа, мм.
S - Снежный покров - Высота снежного покрова, см. При наведении курсора мыши на число - состояние снежного покрова и степень покрытия местности в баллах.